owner,sensor,date,latitude,longitude,vertical_datum,sea_water_practical_salinity,qcFlag 
SCCF RECON,ioos:station:SCCF:16:1,2009-08-01T00:00:00Z,26.4345,-81.9647,2.313,34.06,1111122 
SCCF RECON,ioos:station:SCCF:16:1,2009-08-01T01:00:00Z,26.4345,-81.9647,2.376,34.95,1111122 
SCCF RECON,ioos:station:SCCF:16:1,2009-08-01T02:00:00Z,26.4345,-81.9647,2.43,35.05,1111122 
SCCF RECON,ioos:station:SCCF:16:1,2009-08-01T03:00:00Z,26.4345,-81.9647,2.501,35.74,1111122 
SCCF RECON,ioos:station:SCCF:16:1,2009-08-01T04:00:00Z,26.4345,-81.9647,2.54,36.02,1111122 
SCCF RECON,ioos:station:SCCF:16:1,2009-08-01T05:00:00Z,26.4345,-81.9647,2.561,36.01,1111122 
SCCF RECON,ioos:station:SCCF:16:1,2009-08-01T06:00:00Z,26.4345,-81.9647,2.521,36.14,1111122 
SCCF RECON,ioos:station:SCCF:16:1,2009-08-01T07:00:00Z,26.4345,-81.9647,2.446,36.14,1111122 
SCCF RECON,ioos:station:SCCF:16:1,2009-08-01T08:00:00Z,26.4345,-81.9647,2.431,35.74,1111122 
SCCF RECON,ioos:station:SCCF:16:1,2009-08-01T09:00:00Z,26.4345,-81.9647,2.464,35.2,1111122 
SCCF RECON,ioos:station:SCCF:16:1,2009-08-01T10:00:00Z,26.4345,-81.9647,2.536,35.3,1111122 
SCCF RECON,ioos:station:SCCF:16:1,2009-08-01T11:00:00Z,26.4345,-81.9647,2.638,35.38,1111122 
SCCF RECON,ioos:station:SCCF:16:1,2009-08-01T12:00:00Z,26.4345,-81.9647,2.678,35.53,1111122 
SCCF RECON,ioos:station:SCCF:16:1,2009-08-01T13:00:00Z,26.4345,-81.9647,2.735,35.58,1111122 
SCCF RECON,ioos:station:SCCF:16:1,2009-08-01T14:00:00Z,26.4345,-81.9647,2.776,35.67,1111122 
SCCF RECON,ioos:station:SCCF:16:1,2009-08-01T15:00:00Z,26.4345,-81.9647,2.73,35.77,1111122 
SCCF RECON,ioos:station:SCCF:16:1,2009-08-01T16:00:00Z,26.4345,-81.9647,2.633,35.8,1111122 
SCCF RECON,ioos:station:SCCF:16:1,2009-08-01T17:00:00Z,26.4345,-81.9647,2.449,35.76,1111122 
SCCF RECON,ioos:station:SCCF:16:1,2009-08-01T18:00:00Z,26.4345,-81.9647,2.313,35.61,1111122 
SCCF RECON,ioos:station:SCCF:16:1,2009-08-01T19:00:00Z,26.4345,-81.9647,2.208,35.29,1111122 
SCCF RECON,ioos:station:SCCF:16:1,2009-08-01T20:00:00Z,26.4345,-81.9647,2.049,34.6,1111122 
SCCF RECON,ioos:station:SCCF:16:1,2009-08-01T21:00:00Z,26.4345,-81.9647,1.994,34.03,1111122 
SCCF RECON,ioos:station:SCCF:16:1,2009-08-01T22:00:00Z,26.4345,-81.9647,2.041,32.38,1111122 
SCCF RECON,ioos:station:SCCF:16:1,2009-08-01T23:00:00Z,26.4345,-81.9647,2.127,31.55,1111122 
SCCF RECON,ioos:station:SCCF:16:1,2009-08-02T00:00:00Z,26.4345,-81.9647,2.217,32.76,1111122 
SCCF RECON,ioos:station:SCCF:16:1,2009-08-02T01:00:00Z,26.4345,-81.9647,2.418,33.95,1111122 
SCCF RECON,ioos:station:SCCF:16:1,2009-08-02T02:00:00Z,26.4345,-81.9647,2.448,35.06,1111122 
SCCF RECON,ioos:station:SCCF:16:1,2009-08-02T03:00:00Z,26.4345,-81.9647,2.539,35.34,1111122 
SCCF RECON,ioos:station:SCCF:16:1,2009-08-02T04:00:00Z,26.4345,-81.9647,2.623,35.46,1111122 
SCCF RECON,ioos:station:SCCF:16:1,2009-08-02T05:00:00Z,26.4345,-81.9647,2.575,35.59,1111122 
SCCF RECON,ioos:station:SCCF:16:1,2009-08-02T06:00:00Z,26.4345,-81.9647,2.54,35.63,1111122 
SCCF RECON,ioos:station:SCCF:16:1,2009-08-02T07:00:00Z,26.4345,-81.9647,2.5,35.7,1111122 
SCCF RECON,ioos:station:SCCF:16:1,2009-08-02T08:00:00Z,26.4345,-81.9647,2.441,35.79,1111122 
SCCF RECON,ioos:station:SCCF:16:1,2009-08-02T09:00:00Z,26.4345,-81.9647,2.447,35.79,1111122 
SCCF RECON,ioos:station:SCCF:16:1,2009-08-02T10:00:00Z,26.4345,-81.9647,2.471,35.88,1111122 
SCCF RECON,ioos:station:SCCF:16:1,2009-08-02T11:00:00Z,26.4345,-81.9647,2.569,35.13,1111122 
SCCF RECON,ioos:station:SCCF:16:1,2009-08-02T12:00:00Z,26.4345,-81.9647,2.661,34.99,1111122 
SCCF RECON,ioos:station:SCCF:16:1,2009-08-02T13:00:00Z,26.4345,-81.9647,2.709,35.35,1111122 
SCCF RECON,ioos:station:SCCF:16:1,2009-08-02T14:00:00Z,26.4345,-81.9647,2.756,35.63,1111122 
SCCF RECON,ioos:station:SCCF:16:1,2009-08-02T15:00:00Z,26.4345,-81.9647,2.788,35.5,1111122 
SCCF RECON,ioos:station:SCCF:16:1,2009-08-02T16:00:00Z,26.4345,-81.9647,2.75,35.43,1111122 
SCCF RECON,ioos:station:SCCF:16:1,2009-08-02T17:00:00Z,26.4345,-81.9647,2.632,35.55,1111122 
SCCF RECON,ioos:station:SCCF:16:1,2009-08-02T18:00:00Z,26.4345,-81.9647,2.494,35.65,1111122 
SCCF RECON,ioos:station:SCCF:16:1,2009-08-02T19:00:00Z,26.4345,-81.9647,2.303,35.49,1111122 
SCCF RECON,ioos:station:SCCF:16:1,2009-08-02T20:00:00Z,26.4345,-81.9647,2.163,35.29,1111122 
SCCF RECON,ioos:station:SCCF:16:1,2009-08-02T21:00:00Z,26.4345,-81.9647,2.061,35.03,1111122 
SCCF RECON,ioos:station:SCCF:16:1,2009-08-02T22:00:00Z,26.4345,-81.9647,1.996,34.02,1111122 
SCCF RECON,ioos:station:SCCF:16:1,2009-08-02T23:00:00Z,26.4345,-81.9647,2.066,32.68,1111122 
SCCF RECON,ioos:station:SCCF:16:1,2009-08-03T00:00:00Z,26.4345,-81.9647,2.229,32.42,1111122 
SCCF RECON,ioos:station:SCCF:16:1,2009-08-03T01:00:00Z,26.4345,-81.9647,2.355,33.92,1111122 
SCCF RECON,ioos:station:SCCF:16:1,2009-08-03T02:00:00Z,26.4345,-81.9647,2.449,34.55,1111122 
SCCF RECON,ioos:station:SCCF:16:1,2009-08-03T03:00:00Z,26.4345,-81.9647,2.555,35.14,1111122 
SCCF RECON,ioos:station:SCCF:16:1,2009-08-03T04:00:00Z,26.4345,-81.9647,2.668,35.29,1111122 
SCCF RECON,ioos:station:SCCF:16:1,2009-08-03T05:00:00Z,26.4345,-81.9647,2.707,35.6,1111122 
SCCF RECON,ioos:station:SCCF:16:1,2009-08-03T06:00:00Z,26.4345,-81.9647,2.628,35.73,1111122 
SCCF RECON,ioos:station:SCCF:16:1,2009-08-03T07:00:00Z,26.4345,-81.9647,2.551,35.73,1111122 
SCCF RECON,ioos:station:SCCF:16:1,2009-08-03T08:00:00Z,26.4345,-81.9647,2.498,35.66,1111122 
SCCF RECON,ioos:station:SCCF:16:1,2009-08-03T09:00:00Z,26.4345,-81.9647,2.449,35.28,1111122 
SCCF RECON,ioos:station:SCCF:16:1,2009-08-03T10:00:00Z,26.4345,-81.9647,2.43,34.84,1111122 
SCCF RECON,ioos:station:SCCF:16:1,2009-08-03T11:00:00Z,26.4345,-81.9647,2.534,34.8,1111122 
SCCF RECON,ioos:station:SCCF:16:1,2009-08-03T12:00:00Z,26.4345,-81.9647,2.66,34.95,1111122 
SCCF RECON,ioos:station:SCCF:16:1,2009-08-03T13:00:00Z,26.4345,-81.9647,2.787,35.05,1111122 
SCCF RECON,ioos:station:SCCF:16:1,2009-08-03T14:00:00Z,26.4345,-81.9647,2.848,35.34,1111122 
SCCF RECON,ioos:station:SCCF:16:1,2009-08-03T15:00:00Z,26.4345,-81.9647,2.864,35.44,1111122 
SCCF RECON,ioos:station:SCCF:16:1,2009-08-03T16:00:00Z,26.4345,-81.9647,2.826,35.45,1111122 
SCCF RECON,ioos:station:SCCF:16:1,2009-08-03T17:00:00Z,26.4345,-81.9647,2.731,35.45,1111122 
SCCF RECON,ioos:station:SCCF:16:1,2009-08-03T18:00:00Z,26.4345,-81.9647,2.598,35.46,1111122 
SCCF RECON,ioos:station:SCCF:16:1,2009-08-03T19:00:00Z,26.4345,-81.9647,2.422,35.42,1111122 
SCCF RECON,ioos:station:SCCF:16:1,2009-08-03T20:00:00Z,26.4345,-81.9647,2.241,35.21,1111122 
SCCF RECON,ioos:station:SCCF:16:1,2009-08-03T21:00:00Z,26.4345,-81.9647,2.093,34.89,1111122 
SCCF RECON,ioos:station:SCCF:16:1,2009-08-03T22:00:00Z,26.4345,-81.9647,1.998,34.37,1111122 
SCCF RECON,ioos:station:SCCF:16:1,2009-08-03T23:00:00Z,26.4345,-81.9647,1.974,33.26,1111122 
SCCF RECON,ioos:station:SCCF:16:1,2009-08-04T00:00:00Z,26.4345,-81.9647,2.085,31.77,1111122 
SCCF RECON,ioos:station:SCCF:16:1,2009-08-04T01:00:00Z,26.4345,-81.9647,2.282,32.63,1111122 
SCCF RECON,ioos:station:SCCF:16:1,2009-08-04T02:00:00Z,26.4345,-81.9647,2.399,33.42,1111122 
SCCF RECON,ioos:station:SCCF:16:1,2009-08-04T03:00:00Z,26.4345,-81.9647,2.513,34.67,1111122 
SCCF RECON,ioos:station:SCCF:16:1,2009-08-04T04:00:00Z,26.4345,-81.9647,2.62,34.99,1111122 
SCCF RECON,ioos:station:SCCF:16:1,2009-08-04T05:00:00Z,26.4345,-81.9647,2.648,35.12,1111122 
SCCF RECON,ioos:station:SCCF:16:1,2009-08-04T06:00:00Z,26.4345,-81.9647,2.635,35.45,1111122 
SCCF RECON,ioos:station:SCCF:16:1,2009-08-04T07:00:00Z,26.4345,-81.9647,2.599,35.58,1111122 
SCCF RECON,ioos:station:SCCF:16:1,2009-08-04T08:00:00Z,26.4345,-81.9647,2.492,35.56,1111122 
SCCF RECON,ioos:station:SCCF:16:1,2009-08-04T09:00:00Z,26.4345,-81.9647,2.408,34.97,1111122 
SCCF RECON,ioos:station:SCCF:16:1,2009-08-04T10:00:00Z,26.4345,-81.9647,2.39,34.53,1111122 
SCCF RECON,ioos:station:SCCF:16:1,2009-08-04T11:00:00Z,26.4345,-81.9647,2.444,34.34,1111122 
SCCF RECON,ioos:station:SCCF:16:1,2009-08-04T12:00:00Z,26.4345,-81.9647,2.551,34.3,1111122 
SCCF RECON,ioos:station:SCCF:16:1,2009-08-04T13:00:00Z,26.4345,-81.9647,2.698,34.5,1111122 
SCCF RECON,ioos:station:SCCF:16:1,2009-08-04T14:00:00Z,26.4345,-81.9647,2.809,34.56,1111122 
SCCF RECON,ioos:station:SCCF:16:1,2009-08-04T15:00:00Z,26.4345,-81.9647,2.866,35.4,1111122 
SCCF RECON,ioos:station:SCCF:16:1,2009-08-04T16:00:00Z,26.4345,-81.9647,2.848,35.5,1111122 
SCCF RECON,ioos:station:SCCF:16:1,2009-08-04T17:00:00Z,26.4345,-81.9647,2.8,35.58,1111122 
SCCF RECON,ioos:station:SCCF:16:1,2009-08-04T18:00:00Z,26.4345,-81.9647,2.688,35.57,1111122 
SCCF RECON,ioos:station:SCCF:16:1,2009-08-04T19:00:00Z,26.4345,-81.9647,2.523,35.45,1111122 
SCCF RECON,ioos:station:SCCF:16:1,2009-08-04T20:00:00Z,26.4345,-81.9647,2.355,35.14,1111122 
SCCF RECON,ioos:station:SCCF:16:1,2009-08-04T21:00:00Z,26.4345,-81.9647,2.183,34.76,1111122 
SCCF RECON,ioos:station:SCCF:16:1,2009-08-04T22:00:00Z,26.4345,-81.9647,2.014,34.08,1111122 
SCCF RECON,ioos:station:SCCF:16:1,2009-08-04T23:00:00Z,26.4345,-81.9647,1.918,33.22,1111122 
SCCF RECON,ioos:station:SCCF:16:1,2009-08-05T00:00:00Z,26.4345,-81.9647,1.963,31.58,1111122 
SCCF RECON,ioos:station:SCCF:16:1,2009-08-05T01:00:00Z,26.4345,-81.9647,2.152,31.26,1111122 
SCCF RECON,ioos:station:SCCF:16:1,2009-08-05T02:00:00Z,26.4345,-81.9647,2.359,31.88,1111122 
SCCF RECON,ioos:station:SCCF:16:1,2009-08-05T03:00:00Z,26.4345,-81.9647,2.483,33.86,1111122 
SCCF RECON,ioos:station:SCCF:16:1,2009-08-05T04:00:00Z,26.4345,-81.9647,2.534,34.6,1111122 
SCCF RECON,ioos:station:SCCF:16:1,2009-08-05T05:00:00Z,26.4345,-81.9647,2.64,35.39,1111122 
SCCF RECON,ioos:station:SCCF:16:1,2009-08-05T06:00:00Z,26.4345,-81.9647,2.672,35.6,1111122 
SCCF RECON,ioos:station:SCCF:16:1,2009-08-05T07:00:00Z,26.4345,-81.9647,2.595,35.62,1111122 
SCCF RECON,ioos:station:SCCF:16:1,2009-08-05T08:00:00Z,26.4345,-81.9647,2.519,35.55,1111122 
SCCF RECON,ioos:station:SCCF:16:1,2009-08-05T09:00:00Z,26.4345,-81.9647,2.464,34.55,1111122 
SCCF RECON,ioos:station:SCCF:16:1,2009-08-05T10:00:00Z,26.4345,-81.9647,2.396,34.61,1111122 
SCCF RECON,ioos:station:SCCF:16:1,2009-08-05T11:00:00Z,26.4345,-81.9647,2.404,34.44,1111122 
SCCF RECON,ioos:station:SCCF:16:1,2009-08-05T12:00:00Z,26.4345,-81.9647,2.447,34.33,1111122 
SCCF RECON,ioos:station:SCCF:16:1,2009-08-05T13:00:00Z,26.4345,-81.9647,2.605,34.59,1111122 
SCCF RECON,ioos:station:SCCF:16:1,2009-08-05T14:00:00Z,26.4345,-81.9647,2.738,34.97,1111122 
SCCF RECON,ioos:station:SCCF:16:1,2009-08-05T15:00:00Z,26.4345,-81.9647,2.849,35.33,1111122 
SCCF RECON,ioos:station:SCCF:16:1,2009-08-05T16:00:00Z,26.4345,-81.9647,2.898,35.51,1111122 
SCCF RECON,ioos:station:SCCF:16:1,2009-08-05T17:00:00Z,26.4345,-81.9647,2.917,35.56,1111122 
SCCF RECON,ioos:station:SCCF:16:1,2009-08-05T18:00:00Z,26.4345,-81.9647,2.794,35.57,1111122 
SCCF RECON,ioos:station:SCCF:16:1,2009-08-05T19:00:00Z,26.4345,-81.9647,2.674,35.41,1111122 
SCCF RECON,ioos:station:SCCF:16:1,2009-08-05T20:00:00Z,26.4345,-81.9647,2.399,35.49,1111122 
SCCF RECON,ioos:station:SCCF:16:1,2009-08-05T21:00:00Z,26.4345,-81.9647,2.222,34.56,1111122 
SCCF RECON,ioos:station:SCCF:16:1,2009-08-05T22:00:00Z,26.4345,-81.9647,2.124,34.3,1111122 
SCCF RECON,ioos:station:SCCF:16:1,2009-08-05T23:00:00Z,26.4345,-81.9647,2.055,34.01,1111122 
SCCF RECON,ioos:station:SCCF:16:1,2009-08-06T00:00:00Z,26.4345,-81.9647,1.957,32.42,1111122 
SCCF RECON,ioos:station:SCCF:16:1,2009-08-06T01:00:00Z,26.4345,-81.9647,2.067,31.32,1111122 
SCCF RECON,ioos:station:SCCF:16:1,2009-08-06T02:00:00Z,26.4345,-81.9647,2.259,31.32,1111122 
SCCF RECON,ioos:station:SCCF:16:1,2009-08-06T03:00:00Z,26.4345,-81.9647,2.457,33.6,1111122 
SCCF RECON,ioos:station:SCCF:16:1,2009-08-06T04:00:00Z,26.4345,-81.9647,2.596,34.33,1111122 
SCCF RECON,ioos:station:SCCF:16:1,2009-08-06T05:00:00Z,26.4345,-81.9647,2.657,34.74,1111122 
SCCF RECON,ioos:station:SCCF:16:1,2009-08-06T06:00:00Z,26.4345,-81.9647,2.722,35.18,1111122 
SCCF RECON,ioos:station:SCCF:16:1,2009-08-06T07:00:00Z,26.4345,-81.9647,2.638,35.21,1111122 
SCCF RECON,ioos:station:SCCF:16:1,2009-08-06T08:00:00Z,26.4345,-81.9647,2.578,35.26,1111122 
SCCF RECON,ioos:station:SCCF:16:1,2009-08-06T09:00:00Z,26.4345,-81.9647,2.467,35.2,1111122 
SCCF RECON,ioos:station:SCCF:16:1,2009-08-06T10:00:00Z,26.4345,-81.9647,2.405,34.37,1111122 
SCCF RECON,ioos:station:SCCF:16:1,2009-08-06T11:00:00Z,26.4345,-81.9647,2.362,34.13,1111122 
SCCF RECON,ioos:station:SCCF:16:1,2009-08-06T12:00:00Z,26.4345,-81.9647,2.405,33.96,1111122 
SCCF RECON,ioos:station:SCCF:16:1,2009-08-06T13:00:00Z,26.4345,-81.9647,2.501,34.01,1111122 
SCCF RECON,ioos:station:SCCF:16:1,2009-08-06T14:00:00Z,26.4345,-81.9647,2.782,34.32,1111122 
SCCF RECON,ioos:station:SCCF:16:1,2009-08-06T15:00:00Z,26.4345,-81.9647,2.774,34.75,1111122 
SCCF RECON,ioos:station:SCCF:16:1,2009-08-06T16:00:00Z,26.4345,-81.9647,2.885,35.06,1111122 
SCCF RECON,ioos:station:SCCF:16:1,2009-08-06T17:00:00Z,26.4345,-81.9647,2.936,35.37,1111122 
SCCF RECON,ioos:station:SCCF:16:1,2009-08-06T18:00:00Z,26.4345,-81.9647,3.027,35.47,1111122 
SCCF RECON,ioos:station:SCCF:16:1,2009-08-06T19:00:00Z,26.4345,-81.9647,2.579,35.43,1111122 
SCCF RECON,ioos:station:SCCF:16:1,2009-08-06T20:00:00Z,26.4345,-81.9647,2.539,35.2,1111122 
SCCF RECON,ioos:station:SCCF:16:1,2009-08-06T21:00:00Z,26.4345,-81.9647,2.45,34.87,1111122 
SCCF RECON,ioos:station:SCCF:16:1,2009-08-06T22:00:00Z,26.4345,-81.9647,2.217,34.44,1111122 
SCCF RECON,ioos:station:SCCF:16:1,2009-08-06T23:00:00Z,26.4345,-81.9647,2.076,34.0,1111122 
SCCF RECON,ioos:station:SCCF:16:1,2009-08-07T00:00:00Z,26.4345,-81.9647,2.005,33.04,1111122 
SCCF RECON,ioos:station:SCCF:16:1,2009-08-07T01:00:00Z,26.4345,-81.9647,2.046,32.13,1111122 
SCCF RECON,ioos:station:SCCF:16:1,2009-08-07T02:00:00Z,26.4345,-81.9647,2.246,31.08,1111122 
SCCF RECON,ioos:station:SCCF:16:1,2009-08-07T03:00:00Z,26.4345,-81.9647,2.41,32.67,1111122 
SCCF RECON,ioos:station:SCCF:16:1,2009-08-07T04:00:00Z,26.4345,-81.9647,2.552,33.66,1111122 
SCCF RECON,ioos:station:SCCF:16:1,2009-08-07T05:00:00Z,26.4345,-81.9647,2.675,34.32,1111122 
SCCF RECON,ioos:station:SCCF:16:1,2009-08-07T06:00:00Z,26.4345,-81.9647,2.745,34.93,1111122 
SCCF RECON,ioos:station:SCCF:16:1,2009-08-07T07:00:00Z,26.4345,-81.9647,2.69,35.14,1111122 
SCCF RECON,ioos:station:SCCF:16:1,2009-08-07T08:00:00Z,26.4345,-81.9647,2.617,35.24,1111122 
SCCF RECON,ioos:station:SCCF:16:1,2009-08-07T09:00:00Z,26.4345,-81.9647,2.57,34.67,1111122 
SCCF RECON,ioos:station:SCCF:16:1,2009-08-07T10:00:00Z,26.4345,-81.9647,2.451,34.56,1111122 
SCCF RECON,ioos:station:SCCF:16:1,2009-08-07T11:00:00Z,26.4345,-81.9647,2.348,34.02,1111122 
SCCF RECON,ioos:station:SCCF:16:1,2009-08-07T12:00:00Z,26.4345,-81.9647,2.332,33.85,1111122 
SCCF RECON,ioos:station:SCCF:16:1,2009-08-07T13:00:00Z,26.4345,-81.9647,2.418,32.82,1111122 
SCCF RECON,ioos:station:SCCF:16:1,2009-08-07T14:00:00Z,26.4345,-81.9647,2.653,32.81,1111122 
SCCF RECON,ioos:station:SCCF:16:1,2009-08-07T15:00:00Z,26.4345,-81.9647,2.784,34.17,1111122 
SCCF RECON,ioos:station:SCCF:16:1,2009-08-07T16:00:00Z,26.4345,-81.9647,2.872,34.75,1111122 
SCCF RECON,ioos:station:SCCF:16:1,2009-08-07T17:00:00Z,26.4345,-81.9647,2.892,35.07,1111122 
SCCF RECON,ioos:station:SCCF:16:1,2009-08-07T18:00:00Z,26.4345,-81.9647,2.897,35.27,1111122 
SCCF RECON,ioos:station:SCCF:16:1,2009-08-07T19:00:00Z,26.4345,-81.9647,2.869,35.55,1111122 
SCCF RECON,ioos:station:SCCF:16:1,2009-08-07T20:00:00Z,26.4345,-81.9647,2.687,35.63,1111122 
SCCF RECON,ioos:station:SCCF:16:1,2009-08-07T21:00:00Z,26.4345,-81.9647,2.561,35.4,1111122 
SCCF RECON,ioos:station:SCCF:16:1,2009-08-07T22:00:00Z,26.4345,-81.9647,2.401,34.89,1111122 
SCCF RECON,ioos:station:SCCF:16:1,2009-08-07T23:00:00Z,26.4345,-81.9647,2.208,34.25,1111122 
SCCF RECON,ioos:station:SCCF:16:1,2009-08-08T00:00:00Z,26.4345,-81.9647,2.075,33.81,1111122 
SCCF RECON,ioos:station:SCCF:16:1,2009-08-08T01:00:00Z,26.4345,-81.9647,2.106,33.18,1111122 
SCCF RECON,ioos:station:SCCF:16:1,2009-08-08T02:00:00Z,26.4345,-81.9647,2.19,32.4,1111122 
SCCF RECON,ioos:station:SCCF:16:1,2009-08-08T03:00:00Z,26.4345,-81.9647,2.352,32.21,1111122 
SCCF RECON,ioos:station:SCCF:16:1,2009-08-08T04:00:00Z,26.4345,-81.9647,2.545,33.19,1111122 
SCCF RECON,ioos:station:SCCF:16:1,2009-08-08T05:00:00Z,26.4345,-81.9647,2.732,33.99,1111122 
SCCF RECON,ioos:station:SCCF:16:1,2009-08-08T06:00:00Z,26.4345,-81.9647,2.765,34.36,1111122 
SCCF RECON,ioos:station:SCCF:16:1,2009-08-08T07:00:00Z,26.4345,-81.9647,2.777,34.63,1111122 
SCCF RECON,ioos:station:SCCF:16:1,2009-08-08T08:00:00Z,26.4345,-81.9647,2.676,35.02,1111122 
SCCF RECON,ioos:station:SCCF:16:1,2009-08-08T09:00:00Z,26.4345,-81.9647,2.586,34.81,1111122 
SCCF RECON,ioos:station:SCCF:16:1,2009-08-08T10:00:00Z,26.4345,-81.9647,2.499,34.29,1111122 
SCCF RECON,ioos:station:SCCF:16:1,2009-08-08T11:00:00Z,26.4345,-81.9647,2.359,34.41,1111122 
SCCF RECON,ioos:station:SCCF:16:1,2009-08-08T12:00:00Z,26.4345,-81.9647,2.31,33.96,1111122 
SCCF RECON,ioos:station:SCCF:16:1,2009-08-08T13:00:00Z,26.4345,-81.9647,2.368,33.55,1111122 
SCCF RECON,ioos:station:SCCF:16:1,2009-08-08T14:00:00Z,26.4345,-81.9647,2.474,32.89,1111122 
SCCF RECON,ioos:station:SCCF:16:1,2009-08-08T15:00:00Z,26.4345,-81.9647,2.607,33.61,1111122 
SCCF RECON,ioos:station:SCCF:16:1,2009-08-08T16:00:00Z,26.4345,-81.9647,2.737,33.93,1111122 
SCCF RECON,ioos:station:SCCF:16:1,2009-08-08T17:00:00Z,26.4345,-81.9647,2.853,34.97,1111122 
SCCF RECON,ioos:station:SCCF:16:1,2009-08-08T18:00:00Z,26.4345,-81.9647,2.892,35.41,1111122 
SCCF RECON,ioos:station:SCCF:16:1,2009-08-08T19:00:00Z,26.4345,-81.9647,2.86,35.66,1111122 
SCCF RECON,ioos:station:SCCF:16:1,2009-08-08T20:00:00Z,26.4345,-81.9647,2.803,35.74,1111122 
SCCF RECON,ioos:station:SCCF:16:1,2009-08-08T21:00:00Z,26.4345,-81.9647,2.635,35.54,1111122 
SCCF RECON,ioos:station:SCCF:16:1,2009-08-08T22:00:00Z,26.4345,-81.9647,2.48,34.57,1111122 
SCCF RECON,ioos:station:SCCF:16:1,2009-08-08T23:00:00Z,26.4345,-81.9647,2.322,34.21,1111122 
SCCF RECON,ioos:station:SCCF:16:1,2009-08-09T00:00:00Z,26.4345,-81.9647,2.196,33.57,1111122 
SCCF RECON,ioos:station:SCCF:16:1,2009-08-09T01:00:00Z,26.4345,-81.9647,2.151,32.99,1111122 
SCCF RECON,ioos:station:SCCF:16:1,2009-08-09T02:00:00Z,26.4345,-81.9647,2.225,32.55,1111122 
SCCF RECON,ioos:station:SCCF:16:1,2009-08-09T03:00:00Z,26.4345,-81.9647,2.358,32.03,1111122 
SCCF RECON,ioos:station:SCCF:16:1,2009-08-09T04:00:00Z,26.4345,-81.9647,2.585,32.91,1111122 
SCCF RECON,ioos:station:SCCF:16:1,2009-08-09T05:00:00Z,26.4345,-81.9647,2.603,33.76,1111122 
SCCF RECON,ioos:station:SCCF:16:1,2009-08-09T06:00:00Z,26.4345,-81.9647,2.705,33.6,1111122 
SCCF RECON,ioos:station:SCCF:16:1,2009-08-09T07:00:00Z,26.4345,-81.9647,2.786,34.29,1111122 
SCCF RECON,ioos:station:SCCF:16:1,2009-08-09T08:00:00Z,26.4345,-81.9647,2.745,34.67,1111122 
SCCF RECON,ioos:station:SCCF:16:1,2009-08-09T09:00:00Z,26.4345,-81.9647,2.593,35.36,1111122 
SCCF RECON,ioos:station:SCCF:16:1,2009-08-09T10:00:00Z,26.4345,-81.9647,2.495,35.27,1111122 
SCCF RECON,ioos:station:SCCF:16:1,2009-08-09T11:00:00Z,26.4345,-81.9647,2.401,34.48,1111122 
SCCF RECON,ioos:station:SCCF:16:1,2009-08-09T12:00:00Z,26.4345,-81.9647,2.321,33.2,1111122 
SCCF RECON,ioos:station:SCCF:16:1,2009-08-09T13:00:00Z,26.4345,-81.9647,2.223,32.94,1111122 
SCCF RECON,ioos:station:SCCF:16:1,2009-08-09T14:00:00Z,26.4345,-81.9647,2.234,33.36,1111122 
SCCF RECON,ioos:station:SCCF:16:1,2009-08-09T15:00:00Z,26.4345,-81.9647,2.41,31.58,1111122 
SCCF RECON,ioos:station:SCCF:16:1,2009-08-09T16:00:00Z,26.4345,-81.9647,2.607,33.41,1111122 
SCCF RECON,ioos:station:SCCF:16:1,2009-08-09T17:00:00Z,26.4345,-81.9647,2.722,34.67,1111122 
SCCF RECON,ioos:station:SCCF:16:1,2009-08-09T18:00:00Z,26.4345,-81.9647,2.783,35.46,1111122 
SCCF RECON,ioos:station:SCCF:16:1,2009-08-09T19:00:00Z,26.4345,-81.9647,2.788,35.82,1111122 
SCCF RECON,ioos:station:SCCF:16:1,2009-08-09T20:00:00Z,26.4345,-81.9647,2.74,35.96,1111122 
SCCF RECON,ioos:station:SCCF:16:1,2009-08-09T21:00:00Z,26.4345,-81.9647,2.636,35.99,1111122 
SCCF RECON,ioos:station:SCCF:16:1,2009-08-09T22:00:00Z,26.4345,-81.9647,2.51,35.94,1111122 
SCCF RECON,ioos:station:SCCF:16:1,2009-08-09T23:00:00Z,26.4345,-81.9647,2.454,35.64,1111122 
SCCF RECON,ioos:station:SCCF:16:1,2009-08-10T00:00:00Z,26.4345,-81.9647,2.287,34.43,1111122 
SCCF RECON,ioos:station:SCCF:16:1,2009-08-10T01:00:00Z,26.4345,-81.9647,2.237,33.89,1111122 
SCCF RECON,ioos:station:SCCF:16:1,2009-08-10T02:00:00Z,26.4345,-81.9647,2.202,32.65,1111122 
SCCF RECON,ioos:station:SCCF:16:1,2009-08-10T03:00:00Z,26.4345,-81.9647,2.28,32.37,1111122 
SCCF RECON,ioos:station:SCCF:16:1,2009-08-10T04:00:00Z,26.4345,-81.9647,2.47,33.99,1111122 
SCCF RECON,ioos:station:SCCF:16:1,2009-08-10T05:00:00Z,26.4345,-81.9647,2.643,33.66,1111122 
SCCF RECON,ioos:station:SCCF:16:1,2009-08-10T06:00:00Z,26.4345,-81.9647,2.705,34.45,1111122 
SCCF RECON,ioos:station:SCCF:16:1,2009-08-10T07:00:00Z,26.4345,-81.9647,2.745,35.43,1111122 
SCCF RECON,ioos:station:SCCF:16:1,2009-08-10T08:00:00Z,26.4345,-81.9647,2.743,35.73,1111122 
SCCF RECON,ioos:station:SCCF:16:1,2009-08-10T09:00:00Z,26.4345,-81.9647,2.713,35.81,1111122 
SCCF RECON,ioos:station:SCCF:16:1,2009-08-10T10:00:00Z,26.4345,-81.9647,2.616,35.59,1111122 
SCCF RECON,ioos:station:SCCF:16:1,2009-08-10T11:00:00Z,26.4345,-81.9647,2.469,35.59,1111122 
SCCF RECON,ioos:station:SCCF:16:1,2009-08-10T12:00:00Z,26.4345,-81.9647,2.333,34.89,1111122 
SCCF RECON,ioos:station:SCCF:16:1,2009-08-10T13:00:00Z,26.4345,-81.9647,2.245,34.22,1111122 
SCCF RECON,ioos:station:SCCF:16:1,2009-08-10T14:00:00Z,26.4345,-81.9647,2.232,33.45,1111122 
SCCF RECON,ioos:station:SCCF:16:1,2009-08-10T15:00:00Z,26.4345,-81.9647,2.315,32.86,1111122 
SCCF RECON,ioos:station:SCCF:16:1,2009-08-10T16:00:00Z,26.4345,-81.9647,2.449,32.66,1111122 
SCCF RECON,ioos:station:SCCF:16:1,2009-08-10T17:00:00Z,26.4345,-81.9647,2.594,34.55,1111122 
SCCF RECON,ioos:station:SCCF:16:1,2009-08-10T18:00:00Z,26.4345,-81.9647,2.673,35.26,1111122 
SCCF RECON,ioos:station:SCCF:16:1,2009-08-10T19:00:00Z,26.4345,-81.9647,2.733,35.57,1111122 
SCCF RECON,ioos:station:SCCF:16:1,2009-08-10T20:00:00Z,26.4345,-81.9647,2.755,35.77,1111122 
SCCF RECON,ioos:station:SCCF:16:1,2009-08-10T21:00:00Z,26.4345,-81.9647,2.741,35.84,1111122 
SCCF RECON,ioos:station:SCCF:16:1,2009-08-10T22:00:00Z,26.4345,-81.9647,2.591,35.78,1111122 
SCCF RECON,ioos:station:SCCF:16:1,2009-08-10T23:00:00Z,26.4345,-81.9647,2.508,35.75,1111122 
SCCF RECON,ioos:station:SCCF:16:1,2009-08-11T00:00:00Z,26.4345,-81.9647,2.398,34.91,1111122 
SCCF RECON,ioos:station:SCCF:16:1,2009-08-11T01:00:00Z,26.4345,-81.9647,2.343,35.0,1111122 
SCCF RECON,ioos:station:SCCF:16:1,2009-08-11T02:00:00Z,26.4345,-81.9647,2.27,33.89,1111122 
SCCF RECON,ioos:station:SCCF:16:1,2009-08-11T03:00:00Z,26.4345,-81.9647,2.345,33.02,1111122 
SCCF RECON,ioos:station:SCCF:16:1,2009-08-11T04:00:00Z,26.4345,-81.9647,2.488,34.76,1111122 
SCCF RECON,ioos:station:SCCF:16:1,2009-08-11T05:00:00Z,26.4345,-81.9647,2.632,35.05,1111122 
SCCF RECON,ioos:station:SCCF:16:1,2009-08-11T06:00:00Z,26.4345,-81.9647,2.719,35.59,1111122 
SCCF RECON,ioos:station:SCCF:16:1,2009-08-11T07:00:00Z,26.4345,-81.9647,2.789,35.83,1111122 
SCCF RECON,ioos:station:SCCF:16:1,2009-08-11T08:00:00Z,26.4345,-81.9647,2.83,36.06,1111122 
SCCF RECON,ioos:station:SCCF:16:1,2009-08-11T09:00:00Z,26.4345,-81.9647,2.797,35.98,1111122 
SCCF RECON,ioos:station:SCCF:16:1,2009-08-11T10:00:00Z,26.4345,-81.9647,2.705,35.92,1111122 
SCCF RECON,ioos:station:SCCF:16:1,2009-08-11T11:00:00Z,26.4345,-81.9647,2.582,35.94,1111122 
SCCF RECON,ioos:station:SCCF:16:1,2009-08-11T12:00:00Z,26.4345,-81.9647,2.416,35.72,1111122 
SCCF RECON,ioos:station:SCCF:16:1,2009-08-11T13:00:00Z,26.4345,-81.9647,2.277,34.55,1111122 
SCCF RECON,ioos:station:SCCF:16:1,2009-08-11T14:00:00Z,26.4345,-81.9647,2.213,34.02,1111122 
SCCF RECON,ioos:station:SCCF:16:1,2009-08-11T15:00:00Z,26.4345,-81.9647,2.199,33.35,1111122 
SCCF RECON,ioos:station:SCCF:16:1,2009-08-11T16:00:00Z,26.4345,-81.9647,2.241,32.39,1111122 